Location: Fort Wayne
(41.1310°N, 85.1290°W)
Time: 19:31:02
(UTC-04:00)

COSMOS 2406 - Visible Passes

Search period start: 25 October 2014 00:00
Search period end: 03 November 2014 23:00
Orbit: 846 x 863 km, 71.0° (Epoch: 24 October)

Date Brightness Start Highest point End Pass type
(mag) Time Alt. Az. Time Alt. Az. Time Alt. Az.
25 Oct 5.7 07:05:29 10° NNE 07:08:31 15° NE 07:11:33 10° E visible
26 Oct 5.7 06:54:18 10° NNE 06:57:24 15° NE 07:00:29 10° E visible
27 Oct 5.7 06:43:06 10° NNE 06:46:16 15° NE 06:49:26 10° E visible
28 Oct 5.8 06:31:55 10° NNE 06:35:09 15° NE 06:38:22 10° E visible
29 Oct 5.8 06:20:43 10° NNE 06:24:01 16° NE 06:27:18 10° E visible
30 Oct 5.8 06:09:32 10° N 06:12:53 16° NE 06:16:14 10° E visible
31 Oct 5.8 05:58:21 10° N 06:01:45 16° NE 06:05:10 10° E visible
31 Oct 3.3 07:41:10 10° NNW 07:46:52 86° WSW 07:52:32 10° SSE visible
01 Nov 5.8 05:47:09 10° N 05:50:38 16° NE 05:54:05 10° E visible
01 Nov 3.2 07:30:01 10° NNW 07:35:43 85° WSW 07:41:22 10° SSE visible
02 Nov 5.7 04:35:58 10° N 04:39:30 17° NE 04:43:01 10° E visible
02 Nov 3.2 06:18:52 10° NNW 06:24:33 83° WSW 06:30:13 10° SSE visible
02 Nov 5.0 19:29:05 10° SSE 19:30:15 15° SSE 19:30:15 15° SSE visible
03 Nov 5.7 04:24:46 10° N 04:28:22 17° NE 04:31:56 10° E visible
03 Nov 3.2 06:07:43 10° NNW 06:13:24 82° WSW 06:19:04 10° SSE visible
03 Nov 4.4 19:17:53 10° SSE 19:20:48 24° SE 19:20:48 24° SE visible
03 Nov 5.5 21:01:38 10° SW 21:02:59 17° WSW 21:02:59 17° WSW visible
